Regional Weather Roundup
Issued by NWS

Home | Current Version | Previous Version | Graphics & Text | Print | Product List | Glossary On
Versions: 1 2 3 4 5 6 7 8 9 10 11 12 13 14 15 16 17 18 19 20 21 22 23 24 25 26 27 28 29 30 31 32 33 34 35 36 37 38 39 40 41 42 43 44 45 46 47 48 49 50
000
ASUS45 KCYS 032210
RWRWY

WYOMING REGIONAL WEATHER ROUNDUP
NATIONAL WEATHER SERVICE CHEYENNE WY
400 PM MDT THU SEP 03 2015

NOTE:  "FAIR" INDICATES FEW OR NO CLOUDS BELOW 12,000 FEET
WITH NO SIGNIFICANT WEATHER AND/OR OBSTRUCTIONS TO VISIBILITY.

WYZ001-032300-
YELLOWSTONE NATIONAL PARK

CITY           SKY/WX    TMP DP  RH WIND       PRES   REMARKS
LK YELLOWSTONE   N/A     70  35  27 MISG      30.04F
W YELLOWSTONE  NOT AVBL

$$
WYZ002>013-054>058-071-098>099-032300-
NORTHERN WYOMING

CITY           SKY/WX    TMP DP  RH WIND       PRES   REMARKS
JACKSON        FAIR      77  32  19 S20G25    29.93F
CODY           FAIR      73  45  35 NE13      29.82F
GREYBULL       FAIR      84  40  21 E3        29.73F
WORLAND        FAIR      85  41  21 SW10      29.76F
SHERIDAN       FAIR      84  39  20 NW10      29.77F
BUFFALO        FAIR      92  37  14 S10       29.82F
GILLETTE       FAIR      92  39  15 S8        29.79F
HULETT         FAIR      88  39  18 SE6       29.83F
NEWCASTLE      FAIR      90  34  13 E14       29.82F

$$
WYZ014>020-022>026-101>103-032300-
CENTRAL WYOMING

CITY           SKY/WX    TMP DP  RH WIND       PRES   REMARKS
BIG PINEY      FAIR      80  25  13 SW16G29   30.00F
PINEDALE       FAIR      77  28  16 S14G22    30.01F
DUBOIS         CLOUDY    73  32  21 SW12G23   29.97F
LANDER         FAIR      83  29  14 SW15G24   29.87F
RIVERTON       FAIR      82  29  14 SW21G29   29.87F
CASPER         FAIR      85  36  17 SW20G26   29.89F
DOUGLAS        FAIR      90  35  14 SE13      29.87F

$$
WYZ021-027>030-104>119-032300-
SOUTHERN WYOMING

CITY           SKY/WX    TMP DP  RH WIND       PRES   REMARKS
EVANSTON       FAIR      78  28  16 SW22G31   30.03F
KEMMERER       FAIR      77  28  16 W22       30.03F
FORT BRIDGER   CLEAR     81  28  15 W20G28    30.03F
ROCK SPRINGS   FAIR      76  34  21 S16G24    30.02F
DIXON          FAIR      67  50  53 SE7       30.11S
RAWLINS        FAIR      75  38  26 S22       30.05S
SARATOGA       FAIR      73  39  29 SW16G22   30.09S
LARAMIE        PTSUNNY   59  49  69 S25G37    30.14R
CHEYENNE       FAIR      73  48  41 SW12      30.04F
TORRINGTON     FAIR      89  45  21 S21       29.85S
PINE BLUFFS    MOCLDY    73  45  35 SE16G24   29.98S

$$



USA.gov is the U.S. government's official web portal to all federal, state and local government web resources and services.